EN

Hourly Weather Bársonyos

Today, 23 January, Saturday

Time Temperature Precipitation Wind Pressure Humidity
00:00 +7°C° 0.1 mm 6 mps 734 mmHg 86%
01:00 +7°C° 0.1 mm 6 mps 734 mmHg 86%
02:00 +6°C° 0 mm 7 mps 733 mmHg 84%
03:00 +8°C° 0 mm 7 mps 733 mmHg 82%
04:00 +7°C° 0 mm 8 mps 732 mmHg 80%
05:00 +7°C° 0 mm 8 mps 732 mmHg 81%
06:00 +7°C° 0 mm 8 mps 732 mmHg 81%
07:00 +7°C° 0 mm 8 mps 732 mmHg 81%
08:00 +7°C° 0 mm 8 mps 732 mmHg 80%
09:00 +8°C° 0 mm 7 mps 733 mmHg 79%
10:00 +8°C° 0 mm 7 mps 733 mmHg 78%
11:00 +8°C° 0.1 mm 6 mps 733 mmHg 79%
12:00 +8°C° 0.1 mm 5 mps 733 mmHg 81%
13:00 +8°C° 0.1 mm 5 mps 733 mmHg 82%
14:00 +7°C° 0.5 mm 4 mps 733 mmHg 82%
15:00 +7°C° 0.5 mm 3 mps 733 mmHg 83%
16:00 +4°C° 0.5 mm 3 mps 732 mmHg 84%
17:00 +4°C° 0.2 mm 3 mps 733 mmHg 86%
18:00 +3°C° 0.2 mm 4 mps 733 mmHg 89%
19:00 +1°C° 0.2 mm 4 mps 733 mmHg 91%
20:00 +1°C° 0.4 mm 4 mps 733 mmHg 93%
21:00 +1°C° 0.4 mm 4 mps 733 mmHg 94%
22:00 +1°C° 0.4 mm 3 mps 733 mmHg 96%
23:00 +1°C° 0 mm 3 mps 733 mmHg 95%

Tomorrow, 24 January, Sunday

Time Temperature Precipitation Wind Pressure Humidity
00:00 +1°C° 0 mm 3 mps 733 mmHg 95%
01:00 +3°C° 0 mm 2 mps 732 mmHg 94%
02:00 +2°C° 0.1 mm 2 mps 732 mmHg 94%
03:00 +2°C° 0.1 mm 2 mps 732 mmHg 94%
04:00 +2°C° 0.1 mm 2 mps 732 mmHg 94%
05:00 +2°C° 0.2 mm 2 mps 732 mmHg 94%
06:00 +1°C° 0.2 mm 2 mps 732 mmHg 94%
07:00 0°C° 0.2 mm 3 mps 733 mmHg 94%
08:00 0°C° 0 mm 3 mps 733 mmHg 94%
09:00 -1°C° 0 mm 4 mps 734 mmHg 93%
10:00 -1°C° 0 mm 4 mps 734 mmHg 93%
11:00 0°C° 0 mm 4 mps 734 mmHg 89%
12:00 0°C° 0 mm 4 mps 734 mmHg 85%
13:00 +1°C° 0 mm 4 mps 735 mmHg 81%
14:00 +2°C° 0 mm 3 mps 735 mmHg 79%
15:00 +2°C° 0 mm 3 mps 735 mmHg 78%
16:00 +3°C° 0 mm 2 mps 735 mmHg 76%
17:00 +2°C° 0 mm 3 mps 736 mmHg 78%
18:00 +1°C° 0 mm 3 mps 736 mmHg 79%
19:00 0°C° 0 mm 3 mps 736 mmHg 80%
20:00 0°C° 0 mm 3 mps 736 mmHg 79%
21:00 -1°C° 0 mm 4 mps 736 mmHg 78%
22:00 -1°C° 0 mm 4 mps 736 mmHg 77%
23:00 0°C° 0 mm 3 mps 736 mmHg 78%

Day after tomorrow, 25 January, Monday

Time Temperature Precipitation Wind Pressure Humidity
00:00 -1°C° 0 mm 3 mps 736 mmHg 78%
01:00 -1°C° 0 mm 3 mps 736 mmHg 78%
02:00 -2°C° 0 mm 4 mps 736 mmHg 76%
03:00 -2°C° 0 mm 5 mps 735 mmHg 75%
04:00 -3°C° 0 mm 6 mps 735 mmHg 73%
05:00 -3°C° 0 mm 6 mps 735 mmHg 75%
06:00 -3°C° 0 mm 7 mps 735 mmHg 76%
07:00 -3°C° 0 mm 7 mps 736 mmHg 78%
08:00 -4°C° 0 mm 8 mps 736 mmHg 77%
09:00 -2°C° 0 mm 8 mps 736 mmHg 77%
10:00 -3°C° 0 mm 9 mps 737 mmHg 76%
11:00 -1°C° 0 mm 9 mps 737 mmHg 72%
12:00 -1°C° 0 mm 9 mps 737 mmHg 69%
13:00 0°C° 0 mm 10 mps 737 mmHg 66%
14:00 0°C° 0 mm 9 mps 738 mmHg 67%
15:00 -1°C° 0 mm 8 mps 738 mmHg 68%
16:00 -1°C° 0 mm 7 mps 739 mmHg 69%
17:00 -2°C° 0 mm 7 mps 739 mmHg 71%
18:00 -2°C° 0 mm 6 mps 740 mmHg 72%
19:00 -2°C° 0 mm 5 mps 741 mmHg 74%
20:00 -2°C° 0 mm 5 mps 741 mmHg 75%
21:00 -2°C° 0 mm 5 mps 742 mmHg 76%
22:00 -4°C° 0 mm 5 mps 742 mmHg 77%
23:00 -4°C° 0 mm 5 mps 743 mmHg 78%

26 January, Tuesday

Time Temperature Precipitation Wind Pressure Humidity
00:00 -4°C° 0 mm 5 mps 743 mmHg 78%
01:00 -4°C° 0 mm 5 mps 743 mmHg 78%
02:00 -3°C° 0 mm 4 mps 743 mmHg 79%
03:00 -3°C° 0 mm 4 mps 744 mmHg 80%
04:00 -2°C° 0 mm 3 mps 744 mmHg 81%
05:00 -2°C° 0 mm 3 mps 744 mmHg 80%
06:00 -2°C° 0 mm 3 mps 744 mmHg 79%
07:00 -1°C° 0 mm 3 mps 744 mmHg 79%
08:00 -1°C° 0.1 mm 3 mps 745 mmHg 76%
09:00 -1°C° 0.1 mm 4 mps 745 mmHg 73%
10:00 0°C° 0.1 mm 5 mps 745 mmHg 70%
11:00 0°C° 0 mm 5 mps 745 mmHg 67%
12:00 +1°C° 0 mm 6 mps 745 mmHg 64%
13:00 +2°C° 0 mm 6 mps 745 mmHg 61%
14:00 +1°C° 0 mm 5 mps 745 mmHg 66%
15:00 0°C° 0 mm 4 mps 745 mmHg 71%
16:00 +1°C° 0 mm 3 mps 745 mmHg 76%
17:00 0°C° 0 mm 3 mps 746 mmHg 80%
18:00 -1°C° 0 mm 3 mps 746 mmHg 84%
19:00 -2°C° 0 mm 3 mps 747 mmHg 88%
20:00 -2°C° 0 mm 3 mps 747 mmHg 87%
21:00 -2°C° 0 mm 3 mps 748 mmHg 86%
22:00 -2°C° 0 mm 3 mps 748 mmHg 84%
23:00 -2°C° 0 mm 3 mps 748 mmHg 85%

27 January, Wednesday

Time Temperature Precipitation Wind Pressure Humidity
00:00 -2°C° 0 mm 2 mps 748 mmHg 85%
01:00 -3°C° 0 mm 2 mps 748 mmHg 85%
02:00 -3°C° 0 mm 2 mps 747 mmHg 86%
03:00 -2°C° 0 mm 3 mps 747 mmHg 86%
04:00 -2°C° 0 mm 3 mps 747 mmHg 87%
05:00 -2°C° 0 mm 3 mps 747 mmHg 85%
06:00 -2°C° 0 mm 3 mps 746 mmHg 84%
07:00 -2°C° 0 mm 3 mps 746 mmHg 82%
08:00 -2°C° 0 mm 4 mps 746 mmHg 76%
09:00 -1°C° 0 mm 4 mps 746 mmHg 69%
10:00 0°C° 0 mm 5 mps 746 mmHg 63%
11:00 0°C° 0 mm 5 mps 745 mmHg 61%
12:00 +1°C° 0 mm 5 mps 745 mmHg 59%
13:00 +2°C° 0 mm 6 mps 744 mmHg 57%
14:00 +1°C° 0.1 mm 5 mps 744 mmHg 68%
15:00 0°C° 0.1 mm 4 mps 744 mmHg 79%
16:00 -1°C° 0.1 mm 4 mps 744 mmHg 90%
17:00 -1°C° 0.2 mm 4 mps 744 mmHg 88%
18:00 -1°C° 0.2 mm 4 mps 744 mmHg 85%
19:00 -1°C° 0.2 mm 4 mps 744 mmHg 83%
20:00 0°C° 0.3 mm 4 mps 745 mmHg 85%
21:00 0°C° 0.3 mm 5 mps 745 mmHg 87%
22:00 -1°C° 0.3 mm 6 mps 745 mmHg 89%
23:00 +1°C° 0.1 mm 6 mps 745 mmHg 90%

28 January, Thursday

Time Temperature Precipitation Wind Pressure Humidity
00:00 +1°C° 0.1 mm 6 mps 745 mmHg 91%
01:00 0°C° 0.1 mm 7 mps 746 mmHg 92%
02:00 +1°C° 0 mm 6 mps 746 mmHg 92%
03:00 -1°C° 0 mm 6 mps 746 mmHg 93%
04:00 -1°C° 0 mm 6 mps 746 mmHg 93%
05:00 0°C° 0.2 mm 5 mps 747 mmHg 94%
06:00 -1°C° 0.2 mm 4 mps 747 mmHg 95%
07:00 0°C° 0.2 mm 3 mps 747 mmHg 96%
08:00 +2°C° 0 mm 2 mps 747 mmHg 95%
09:00 +2°C° 0 mm 2 mps 747 mmHg 94%
10:00 +2°C° 0 mm 2 mps 747 mmHg 93%
11:00 +2°C° 0.4 mm 2 mps 746 mmHg 94%
12:00 +2°C° 0.4 mm 2 mps 746 mmHg 95%
13:00 +2°C° 0.4 mm 2 mps 745 mmHg 96%
14:00 +3°C° 0.2 mm 2 mps 745 mmHg 93%
15:00 +2°C° 0.2 mm 3 mps 745 mmHg 91%
16:00 +2°C° 0.2 mm 3 mps 744 mmHg 88%
17:00 +1°C° 0.9 mm 4 mps 744 mmHg 89%
18:00 +1°C° 0.9 mm 4 mps 743 mmHg 89%
19:00 0°C° 0.9 mm 5 mps 743 mmHg 90%
Show more

We Need Your Consent

Meteoprog and our Service Providers may store and access personal data such as cookies, device identifiers or other similar technologies on your device and process such data to personalise content and ads, as well as provide social media features and to analyse the traffic.

  • Store and/or access information on your device

    Cookies, device identifiers or other information can be stored or accessed on your device for the purposes indicated above.

  • Personalised ads and content, ad and content measurement, audience insights, and products development

    Ads and content can be personalised based on a profile. More data can be added to better personalise ads and content. Ad and content performance can be measured. Insights about the audience who saw the ads and content can be derived. Such data can be used to develop or improve user’s experience, systems and software.

By clicking ‘I Agree’ you will allow the use of indicated cookies, device identifiers, web beacons or other similar technologies. Your settings can be changed in the browser on your device.

For certain purposes, legitimate interests may be relied on, rather than consent. You can read more about this in our Privacy and Cookie Policy.